Regional Weather Roundup
Issued by NWS

Home | Current Version | Previous Version | Graphics & Text | Print | Product List | Glossary On
Versions: 1 2 3 4 5 6 7 8 9 10 11 12 13 14 15 16 17 18 19 20 21 22 23 24 25 26 27 28 29 30 31 32 33 34 35 36 37 38 39 40 41 42 43 44 45 46 47 48 49 50
000
ASUS43 KTOP 262059
RWRKS

WEATHER ROUNDUP FOR KANSAS
NATIONAL WEATHER SERVICE GOODLAND KS
300 PM CST THU FEB 26 2015

NOTE:  "FAIR" INDICATES FEW OR NO CLOUDS BELOW 12,000 FEET WITH NO
SIGNIFICANT WEATHER AND/OR OBSTRUCTIONS TO VISIBILITY.

KSZ001>006-013>018-027>032-041>047-262200-
NORTHWEST KANSAS

CITY           SKY/WX    TMP DP  RH WIND       PRES   REMARKS
GOODLAND       CLOUDY    19   6  57 NE10      30.29F WCI   7
HAYS           SUNNY     23  -6  28 NE13G18   30.41F WCI  11
HILL CITY      SUNNY     24  -3  30 N17G24    30.40F WCI  11
RUSSELL        SUNNY     22  -4  32 N14       30.41F WCI   9
$$

KSZ061>065-074>080-084>089-262200-
SOUTHWEST KANSAS

CITY           SKY/WX    TMP DP  RH WIND       PRES   REMARKS
DODGE CITY     MOSUNNY   24   3  40 N13G26    30.36F WCI  12
ELKHART          N/A     20  11  68 NE6         N/A
GARDEN CITY    CLOUDY    21   5  50 NE13      30.33F WCI   9
GREAT BEND     SUNNY     21  -2  35 NE14      30.42S WCI   8
LIBERAL        PTSUNNY   23   7  50 N10       30.34F WCI  12
$$

KSZ066>073-081>083-090>101-262200-
SOUTHEAST KANSAS

CITY           SKY/WX    TMP DP  RH WIND       PRES   REMARKS
CHANUTE        SUNNY     26   4  38 N14G23    30.41R WCI  14
COFFEYVILLE    SUNNY     28   3  34 N17       30.41R WCI  16
HUTCHINSON     SUNNY     25  -5  26 N20G25    30.43S WCI  11
MEDICINE LODGE   N/A     27  -1  30 N13G24    30.41S WCI  16
NEWTON         SUNNY     23  -2  33 N18G29    30.42S WCI   9
PARSONS        SUNNY     28   3  34 N13G22    30.41R WCI  17
WICHITA INTL   MOSUNNY   26  -3  28 N15       30.42S WCI  14
WICHITA JABRA  SUNNY     25  -2  31 N17G23    30.41S WCI  12
WINFIELD       SUNNY     28  -1  28 N18       30.42S WCI  15
$$

KSZ007>012-019>026-033>040-048>060-102>105-262200-
NORTHEAST KANSAS

CITY           SKY/WX    TMP DP  RH WIND       PRES   REMARKS
CONCORDIA      SUNNY     20  -4  34 N14G23    30.46F WCI   7
EMPORIA        SUNNY     22   0  38 N17G23    30.42R WCI   8
LAWRENCE       SUNNY     22   0  38 N15G25    30.45S WCI   9
MANHATTAN      SUNNY     21  -2  36 N13G20    30.48S WCI   9
OLATHE IND     SUNNY     21   1  41 N17G24    30.42S WCI   7
OLATHE EXE     SUNNY     21   1  41 N16       30.40S WCI   7
SALINA         SUNNY     23  -4  30 N17G26    30.47F WCI   9
TOPEKA BILLARD SUNNY     22   0  38 N15G22    30.47R WCI   9
TOPEKA FORBES  SUNNY     23   0  36 N17       30.44R WCI   9
$$


USA.gov is the U.S. government's official web portal to all federal, state and local government web resources and services.